GPS BIIF-12 (PRN 32)

Last updated on Wed Sep 17 2025 00:03:17 GMT+0000 (Coordinated Universal Time)

1 41328U 16007A 25259.14235960 .00000015 00000+0 00000+0 0 9999 2 41328 55.3514 100.3332 0088619 242.5224 116.6464 2.00565274 70341
UTC large
Height (km)
Speed (km/s)
/
Latitude / Longitude
Inclination (degrees)
Orbital Period (minutes)
Azimuth
Elevation
Range (km)
Doppler Factor

Next 0 passes for location: London (51.5072 / 0.1276)

Sorry there are no passes over London.